Time,TemperatureF,DewpointF,PressureIn,WindDirection,WindDirectionDegrees,WindSpeedMPH,WindSpeedGustMPH,Humidity,HourlyPrecipIn,Conditions,Clouds,dailyrainin,SoftwareType,DateUTC
2013-04-09 00:07:00,54.5,31.3,29.32,NNE,22,4.3,-999.0,41,-99.99,,,0.00,Acu-Link.com,2013-04-09 06:07:00,
2013-04-09 00:22:00,54.5,31.3,29.30,NNE,22,8.3,-999.0,41,-99.99,,,0.00,Acu-Link.com,2013-04-09 06:22:00,
2013-04-09 00:37:00,53.8,30.6,29.31,NE,45,11.0,-999.0,41,-99.99,,,0.00,Acu-Link.com,2013-04-09 06:37:00,
2013-04-09 00:52:00,52.9,31.0,29.30,NNW,337,6.7,-999.0,43,-99.99,,,0.00,Acu-Link.com,2013-04-09 06:52:00,
2013-04-09 01:07:00,52.2,30.9,29.30,NNW,337,6.7,-999.0,44,-99.99,,,0.00,Acu-Link.com,2013-04-09 07:07:00,
2013-04-09 01:23:00,51.6,31.0,29.30,NNW,337,8.9,-999.0,45,-99.99,,,0.00,Acu-Link.com,2013-04-09 07:23:00,
2013-04-09 01:38:00,51.1,30.5,29.30,NW,315,8.9,-999.0,45,-99.99,,,0.00,Acu-Link.com,2013-04-09 07:38:00,
2013-04-09 01:53:00,51.1,30.5,29.27,NW,315,9.4,-999.0,45,-99.99,,,0.00,Acu-Link.com,2013-04-09 07:53:00,
2013-04-09 02:09:00,51.1,31.0,29.27,NW,315,6.3,-999.0,46,-99.99,,,0.00,Acu-Link.com,2013-04-09 08:09:00,
2013-04-09 02:24:00,50.9,30.9,29.26,West,270,7.8,-999.0,46,-99.99,,,0.00,Acu-Link.com,2013-04-09 08:24:00,
2013-04-09 02:39:00,50.7,32.3,29.26,ENE,67,10.3,-999.0,49,-99.99,,,0.00,Acu-Link.com,2013-04-09 08:39:00,
2013-04-09 02:55:00,50.5,31.6,29.28,NNE,22,6.3,-999.0,48,-99.99,,,0.00,Acu-Link.com,2013-04-09 08:55:00,
2013-04-09 03:10:00,49.3,33.8,29.27,NNW,337,16.6,-999.0,55,-99.99,,,0.00,Acu-Link.com,2013-04-09 09:10:00,
2013-04-09 03:25:00,49.5,34.9,29.26,West,270,5.8,-999.0,57,-99.99,,,0.00,Acu-Link.com,2013-04-09 09:25:00,
2013-04-09 03:40:00,49.6,35.0,29.25,WNW,292,8.3,-999.0,57,-99.99,,,0.00,Acu-Link.com,2013-04-09 09:40:00,
2013-04-09 03:55:00,50.0,34.5,29.24,West,270,5.1,-999.0,55,-99.99,,,0.00,Acu-Link.com,2013-04-09 09:55:00,
2013-04-09 04:10:00,50.5,35.0,29.24,ESE,112,5.8,-999.0,55,-99.99,,,0.00,Acu-Link.com,2013-04-09 10:10:00,
2013-04-09 04:25:00,50.0,34.9,29.24,NNE,22,2.2,-999.0,56,-99.99,,,0.00,Acu-Link.com,2013-04-09 10:25:00,
2013-04-09 04:41:00,49.8,34.8,29.25,SE,135,3.1,-999.0,56,-99.99,,,0.00,Acu-Link.com,2013-04-09 10:41:00,
2013-04-09 05:11:00,49.3,33.3,29.26,SW,225,8.3,-999.0,54,-99.99,,,0.00,Acu-Link.com,2013-04-09 11:11:00,
2013-04-09 05:26:00,51.3,31.2,29.26,WSW,247,3.8,-999.0,46,-99.99,,,0.00,Acu-Link.com,2013-04-09 11:26:00,
2013-04-09 05:41:00,50.4,32.9,29.28,SSW,202,5.1,-999.0,51,-99.99,,,0.00,Acu-Link.com,2013-04-09 11:41:00,
2013-04-09 05:57:00,49.6,33.7,29.28,WSW,247,3.8,-999.0,54,-99.99,,,0.00,Acu-Link.com,2013-04-09 11:57:00,
2013-04-09 06:12:00,49.1,33.6,29.29,WSW,247,3.8,-999.0,55,-99.99,,,0.00,Acu-Link.com,2013-04-09 12:12:00,
2013-04-09 06:27:00,48.7,33.8,29.30,WSW,247,2.7,-999.0,56,-99.99,,,0.00,Acu-Link.com,2013-04-09 12:27:00,
2013-04-09 06:42:00,49.5,30.6,29.30,North,0,5.1,-999.0,48,-99.99,,,0.00,Acu-Link.com,2013-04-09 12:42:00,
2013-04-09 06:57:00,49.1,30.8,29.32,SSW,202,8.9,-999.0,49,-99.99,,,0.00,Acu-Link.com,2013-04-09 12:57:00,
2013-04-09 07:13:00,43.9,33.3,29.33,SW,225,11.0,-999.0,66,-99.99,,,0.00,Acu-Link.com,2013-04-09 13:13:00,
2013-04-09 07:28:00,44.1,33.1,29.35,WSW,247,4.7,-999.0,65,-99.99,,,0.00,Acu-Link.com,2013-04-09 13:28:00,
2013-04-09 07:43:00,44.8,33.0,29.36,SW,225,6.3,-999.0,63,-99.99,,,0.00,Acu-Link.com,2013-04-09 13:43:00,
2013-04-09 08:14:00,47.5,29.8,29.37,South,180,5.8,-999.0,50,-99.99,,,0.00,Acu-Link.com,2013-04-09 14:14:00,
2013-04-09 08:29:00,48.2,30.9,29.37,WSW,247,6.7,-999.0,51,-99.99,,,0.00,Acu-Link.com,2013-04-09 14:29:00,
2013-04-09 08:44:00,47.1,29.4,29.38,SSW,202,9.4,-999.0,50,-99.99,,,0.00,Acu-Link.com,2013-04-09 14:44:00,
2013-04-09 08:59:00,47.8,28.6,29.38,SW,225,5.1,-999.0,47,-99.99,,,0.00,Acu-Link.com,2013-04-09 14:59:00,
2013-04-09 09:14:00,47.3,27.6,29.39,SSW,202,4.7,-999.0,46,-99.99,,,0.00,Acu-Link.com,2013-04-09 15:14:00,
2013-04-09 09:30:00,46.0,28.5,29.41,SSW,202,10.3,-999.0,50,-99.99,,,0.00,Acu-Link.com,2013-04-09 15:30:00,
2013-04-09 09:45:00,45.7,29.1,29.43,West,270,8.3,-999.0,52,-99.99,,,0.00,Acu-Link.com,2013-04-09 15:45:00,
2013-04-09 10:00:00,45.1,30.8,29.43,South,180,9.4,-999.0,57,-99.99,,,0.00,Acu-Link.com,2013-04-09 16:00:00,
2013-04-09 10:15:00,46.2,29.6,29.44,SSW,202,4.3,-999.0,52,-99.99,,,0.00,Acu-Link.com,2013-04-09 16:15:00,
2013-04-09 10:30:00,46.9,29.3,29.45,SSW,202,6.7,-999.0,50,-99.99,,,0.00,Acu-Link.com,2013-04-09 16:30:00,
2013-04-09 10:46:00,47.1,30.4,29.45,SSE,157,3.8,-999.0,52,-99.99,,,0.00,Acu-Link.com,2013-04-09 16:46:00,
2013-04-09 11:16:00,46.8,31.0,29.46,WSW,247,4.7,-999.0,54,-99.99,,,0.00,Acu-Link.com,2013-04-09 17:16:00,
2013-04-09 11:31:00,46.4,30.2,29.47,WSW,247,12.5,-999.0,53,-99.99,,,0.00,Acu-Link.com,2013-04-09 17:31:00,
2013-04-09 11:47:00,49.1,30.8,29.47,West,270,8.9,-999.0,49,-99.99,,,0.00,Acu-Link.com,2013-04-09 17:47:00,
2013-04-09 12:02:00,51.1,31.0,29.46,West,270,10.3,-999.0,46,-99.99,,,0.00,Acu-Link.com,2013-04-09 18:02:00,
2013-04-09 12:17:00,49.1,31.3,29.47,West,270,12.5,-999.0,50,-99.99,,,0.00,Acu-Link.com,2013-04-09 18:17:00,
2013-04-09 12:32:00,49.3,29.9,29.47,South,180,3.1,-999.0,47,-99.99,,,0.00,Acu-Link.com,2013-04-09 18:32:00,
2013-04-09 12:47:00,51.1,29.4,29.47,SW,225,3.1,-999.0,43,-99.99,,,0.00,Acu-Link.com,2013-04-09 18:47:00,
2013-04-09 13:03:00,49.1,29.2,29.47,SSE,157,7.8,-999.0,46,-99.99,,,0.00,Acu-Link.com,2013-04-09 19:03:00,
2013-04-09 13:18:00,49.3,29.4,29.47,SE,135,4.7,-999.0,46,-99.99,,,0.00,Acu-Link.com,2013-04-09 19:18:00,
2013-04-09 13:33:00,48.7,31.9,29.47,ENE,67,5.1,-999.0,52,-99.99,,,0.00,Acu-Link.com,2013-04-09 19:33:00,
2013-04-09 13:48:00,48.4,31.1,29.47,SSE,157,4.7,-999.0,51,-99.99,,,0.00,Acu-Link.com,2013-04-09 19:48:00,
2013-04-09 14:49:00,46.9,32.9,29.49,SSE,157,4.7,-999.0,58,-99.99,,,0.00,Acu-Link.com,2013-04-09 20:49:00,
2013-04-09 15:04:00,43.9,36.8,29.52,South,180,1.6,-999.0,76,-99.99,,,0.00,Acu-Link.com,2013-04-09 21:04:00,
2013-04-09 15:19:00,45.5,35.6,29.52,SSE,157,3.1,-999.0,68,-99.99,,,0.00,Acu-Link.com,2013-04-09 21:19:00,
2013-04-09 15:35:00,43.7,34.6,29.53,South,180,4.3,-999.0,70,-99.99,,,0.00,Acu-Link.com,2013-04-09 21:35:00,
2013-04-09 15:50:00,43.3,36.3,29.53,South,180,5.1,-999.0,76,-99.99,,,0.00,Acu-Link.com,2013-04-09 21:50:00,
2013-04-09 16:05:00,43.5,36.8,29.52,SE,135,9.8,-999.0,77,-99.99,,,0.00,Acu-Link.com,2013-04-09 22:05:00,
2013-04-09 16:20:00,44.1,35.6,29.52,East,90,9.4,-999.0,72,-99.99,,,0.00,Acu-Link.com,2013-04-09 22:20:00,
2013-04-09 16:35:00,45.0,35.8,29.52,ESE,112,5.1,-999.0,70,-99.99,,,0.00,Acu-Link.com,2013-04-09 22:35:00,
2013-04-09 17:21:00,47.3,36.5,29.52,South,180,3.1,-999.0,66,-99.99,,,0.00,Acu-Link.com,2013-04-09 23:21:00,
2013-04-09 17:36:00,46.8,36.4,29.53,South,180,3.8,-999.0,67,-99.99,,,0.00,Acu-Link.com,2013-04-09 23:36:00,
2013-04-09 17:52:00,46.9,35.8,29.55,South,180,7.4,-999.0,65,-99.99,,,0.00,Acu-Link.com,2013-04-09 23:52:00,
2013-04-09 18:07:00,46.4,35.7,29.55,SSW,202,5.1,-999.0,66,-99.99,,,0.00,Acu-Link.com,2013-04-10 00:07:00,
2013-04-09 18:22:00,46.8,36.0,29.57,West,270,2.7,-999.0,66,-99.99,,,0.00,Acu-Link.com,2013-04-10 00:22:00,
2013-04-09 18:37:00,46.6,34.7,29.56,SW,225,3.8,-999.0,63,-99.99,,,0.00,Acu-Link.com,2013-04-10 00:37:00,
2013-04-09 18:52:00,46.9,33.4,29.57,SSW,202,4.3,-999.0,59,-99.99,,,0.00,Acu-Link.com,2013-04-10 00:52:00,
2013-04-09 19:07:00,47.3,32.8,29.57,West,270,2.2,-999.0,57,-99.99,,,0.00,Acu-Link.com,2013-04-10 01:07:00,
2013-04-09 19:23:00,46.8,33.2,29.60,West,270,4.7,-999.0,59,-99.99,,,0.00,Acu-Link.com,2013-04-10 01:23:00,
2013-04-09 19:38:00,45.0,35.8,29.61,WSW,247,4.7,-999.0,70,-99.99,,,0.00,Acu-Link.com,2013-04-10 01:38:00,
2013-04-09 19:53:00,44.4,36.0,29.61,South,180,5.1,-999.0,72,-99.99,,,0.00,Acu-Link.com,2013-04-10 01:53:00,
2013-04-09 20:08:00,44.4,36.0,29.62,SSW,202,1.6,-999.0,72,-99.99,,,0.00,Acu-Link.com,2013-04-10 02:08:00,
2013-04-09 20:23:00,44.2,36.8,29.63,SSE,157,2.2,-999.0,75,-99.99,,,0.00,Acu-Link.com,2013-04-10 02:23:00,
2013-04-09 20:39:00,43.7,36.0,29.62,South,180,4.7,-999.0,74,-99.99,,,0.00,Acu-Link.com,2013-04-10 02:39:00,
2013-04-09 20:54:00,43.2,35.1,29.63,South,180,4.7,-999.0,73,-99.99,,,0.00,Acu-Link.com,2013-04-10 02:54:00,
2013-04-09 21:09:00,42.4,35.1,29.63,SSE,157,3.8,-999.0,75,-99.99,,,0.00,Acu-Link.com,2013-04-10 03:09:00,
2013-04-09 21:24:00,41.9,35.2,29.63,SSW,202,3.1,-999.0,77,-99.99,,,0.00,Acu-Link.com,2013-04-10 03:24:00,
2013-04-09 21:40:00,41.5,35.5,29.65,South,180,0.0,-999.0,79,-99.99,,,0.00,Acu-Link.com,2013-04-10 03:40:00,
2013-04-09 21:55:00,41.2,35.5,29.65,SSW,202,2.2,-999.0,80,-99.99,,,0.00,Acu-Link.com,2013-04-10 03:55:00,
2013-04-09 22:10:00,40.1,35.4,29.65,SSW,202,1.1,-999.0,83,-99.99,,,0.00,Acu-Link.com,2013-04-10 04:10:00,
2013-04-09 22:25:00,40.5,35.1,29.66,South,180,1.1,-999.0,81,-99.99,,,0.00,Acu-Link.com,2013-04-10 04:25:00,
2013-04-09 22:40:00,40.8,35.4,29.65,SW,225,1.6,-999.0,81,-99.99,,,0.00,Acu-Link.com,2013-04-10 04:40:00,
2013-04-09 22:56:00,40.3,35.5,29.65,South,180,1.6,-999.0,83,-99.99,,,0.00,Acu-Link.com,2013-04-10 04:56:00,
2013-04-09 23:26:00,41.0,35.9,29.66,SSW,202,2.2,-999.0,82,-99.99,,,0.00,Acu-Link.com,2013-04-10 05:26:00,
2013-04-09 23:41:00,41.0,35.9,29.66,South,180,3.1,-999.0,82,-99.99,,,0.00,Acu-Link.com,2013-04-10 05:41:00,
2013-04-09 23:56:00,40.8,35.8,29.67,SW,225,1.6,-999.0,82,-99.99,,,0.00,Acu-Link.com,2013-04-10 05:56:00,